"Date","(Israel OR Israeli OR Israelis OR Palestinian OR Palestinians OR Gaza) (station:CNN OR station:FOXNEWS OR station:MSNBC): Combined","(Ukraine OR Ukrainian OR Kyiv OR Kiev) (station:CNN OR station:FOXNEWS OR station:MSNBC): Combined"
"01-01-2022",14,125
"01-02-2022",24,188
"01-03-2022",72,173
"01-04-2022",18,55
"01-05-2022",16,3
"01-06-2022",5,4
"01-07-2022",16,29
"01-08-2022",4,43
"01-09-2022",4,206
"01-10-2022",7,337
"01-11-2022",1,160
"01-12-2022",8,61
"01-13-2022",10,73
"01-14-2022",7,165
"01-15-2022",72,185
"01-16-2022",118,108
"01-17-2022",52,219
"01-18-2022",35,305
"01-19-2022",11,577
"01-20-2022",12,749
"01-21-2022",3,829
"01-22-2022",27,647
"01-23-2022",6,900
"01-24-2022",2,1099
"01-25-2022",22,1171
"01-26-2022",19,755
"01-27-2022",8,625
"01-28-2022",2,781
"01-29-2022",3,735
"01-30-2022",29,852
"01-31-2022",18,851
"02-01-2022",6,494
"02-02-2022",6,587
"02-03-2022",12,508
"02-04-2022",4,452
"02-05-2022",1,383
"02-06-2022",47,550
"02-07-2022",28,863
"02-08-2022",9,719
"02-09-2022",17,441
"02-10-2022",13,376
"02-11-2022",5,734
"02-12-2022",16,1009
"02-13-2022",54,933
"02-14-2022",12,1391
"02-15-2022",26,1410
"02-16-2022",7,1271
"02-17-2022",8,1124
"02-18-2022",6,1362
"02-19-2022",7,1589
"02-20-2022",8,1208
"02-21-2022",14,1855
"02-22-2022",15,2764
"02-23-2022",6,2262
"02-24-2022",20,4679
"02-25-2022",13,4338
"02-26-2022",31,4472
"02-27-2022",17,3635
"02-28-2022",18,3642
"03-01-2022",11,3722
"03-02-2022",24,3461
"03-03-2022",34,3407
"03-04-2022",14,3489
"03-05-2022",71,3679
"03-06-2022",86,3743
"03-07-2022",47,3378
"03-08-2022",19,3438
"03-09-2022",21,3347
"03-10-2022",10,3712
"03-11-2022",17,3610
"03-12-2022",27,3520
"03-13-2022",79,3683
"03-14-2022",43,3414
"03-15-2022",24,3471
"03-16-2022",25,3379
"03-17-2022",16,3004
"03-18-2022",33,2842
"03-19-2022",33,2924
"03-20-2022",51,3195
"03-21-2022",105,2656
"03-22-2022",14,1831
"03-23-2022",22,2133
"03-24-2022",11,2754
"03-25-2022",15,2652
"03-26-2022",12,2958
"03-27-2022",34,2562
"03-28-2022",72,2501
"03-29-2022",44,2505
"03-30-2022",49,2227
"03-31-2022",13,2042
"04-01-2022",18,2081
"04-02-2022",14,2384
"04-03-2022",13,2215
"04-04-2022",14,2352
"04-05-2022",8,1970
"04-06-2022",6,1996
"04-07-2022",30,1969
"04-08-2022",39,1810
"04-09-2022",30,1805
"04-10-2022",10,1912
"04-11-2022",9,1721
"04-12-2022",14,1227
"04-13-2022",7,1383
"04-14-2022",7,1705
"04-15-2022",73,1806
"04-16-2022",36,1760
"04-17-2022",17,1572
"04-18-2022",58,1738
"04-19-2022",21,1680
"04-20-2022",5,1577
"04-21-2022",9,1657
"04-22-2022",36,1302
"04-23-2022",18,1383
"04-24-2022",74,1344
"04-25-2022",15,1842
"04-26-2022",7,1528
"04-27-2022",10,1234
"04-28-2022",6,1440
"04-29-2022",4,1622
"04-30-2022",13,1121
"05-01-2022",30,1301
"05-02-2022",104,1217
"05-03-2022",20,769
"05-04-2022",16,665
"05-05-2022",58,913
"05-06-2022",53,1028
"05-07-2022",5,987
"05-08-2022",18,946
"05-09-2022",10,1254
"05-10-2022",6,1191
"05-11-2022",103,816
"05-12-2022",86,803
"05-13-2022",123,841
"05-14-2022",103,676
"05-15-2022",43,390
"05-16-2022",5,371
"05-17-2022",14,412
"05-18-2022",4,413
"05-19-2022",30,756
"05-20-2022",1,707
"05-21-2022",31,451
"05-22-2022",15,463
"05-23-2022",4,781
"05-24-2022",7,536
"05-25-2022",1,67
"05-26-2022",6,118
"05-27-2022",6,194
"05-28-2022",12,256
"05-29-2022",26,265
"05-30-2022",28,491
"05-31-2022",11,578
"06-01-2022",2,541
"06-02-2022",8,360
"06-03-2022",21,421
"06-04-2022",10,434
"06-05-2022",9,316
"06-06-2022",21,446
"06-07-2022",7,392
"06-08-2022",0,162
"06-09-2022",0,145
"06-10-2022",5,177
"06-11-2022",4,294
"06-12-2022",9,245
"06-13-2022",12,209
"06-14-2022",42,208
"06-15-2022",13,329
"06-16-2022",0,337
"06-17-2022",19,413
"06-18-2022",7,363
"06-19-2022",19,362
"06-20-2022",58,355
"06-21-2022",20,190
"06-22-2022",5,224
"06-23-2022",3,266
"06-24-2022",7,65
"06-25-2022",2,197
"06-26-2022",30,374
"06-27-2022",6,492
"06-28-2022",2,284
"06-29-2022",11,233
"06-30-2022",31,443
"07-01-2022",9,298
"07-02-2022",4,293
"07-03-2022",32,172
"07-04-2022",41,254
"07-05-2022",75,150
"07-06-2022",12,137
"07-07-2022",11,322
"07-08-2022",1,211
"07-09-2022",6,191
"07-10-2022",68,208
"07-11-2022",72,222
"07-12-2022",64,100
"07-13-2022",169,78
"07-14-2022",589,240
"07-15-2022",393,158
"07-16-2022",106,262
"07-17-2022",128,192
"07-18-2022",76,223
"07-19-2022",27,235
"07-20-2022",9,265
"07-21-2022",17,154
"07-22-2022",13,131
"07-23-2022",6,309
"07-24-2022",8,298
"07-25-2022",41,336
"07-26-2022",19,247
"07-27-2022",38,174
"07-28-2022",0,216
"07-29-2022",7,187
"07-30-2022",2,156
"07-31-2022",6,161
"08-01-2022",5,212
"08-02-2022",7,112
"08-03-2022",0,158
"08-04-2022",0,142
"08-05-2022",25,138
"08-06-2022",125,149
"08-07-2022",186,145
"08-08-2022",122,223
"08-09-2022",17,60
"08-10-2022",2,126
"08-11-2022",8,157
"08-12-2022",3,113
"08-13-2022",15,121
"08-14-2022",72,86
"08-15-2022",2,87
"08-16-2022",6,125
"08-17-2022",24,69
"08-18-2022",0,147
"08-19-2022",11,313
"08-20-2022",2,346
"08-21-2022",60,327
"08-22-2022",32,479
"08-23-2022",14,408
"08-24-2022",13,509
"08-25-2022",4,385
"08-26-2022",7,141
"08-27-2022",16,218
"08-28-2022",16,177
"08-29-2022",32,308
"08-30-2022",6,317
"08-31-2022",7,207
"09-01-2022",3,195
"09-02-2022",4,128
"09-03-2022",6,115
"09-04-2022",9,160
"09-05-2022",43,154
"09-06-2022",39,213
"09-07-2022",23,231
"09-08-2022",31,136
"09-09-2022",2,54
"09-10-2022",3,190
"09-11-2022",22,253
"09-12-2022",1,514
"09-13-2022",3,587
"09-14-2022",5,374
"09-15-2022",16,362
"09-16-2022",8,289
"09-17-2022",13,372
"09-18-2022",4,315
"09-19-2022",8,160
"09-20-2022",6,321
"09-21-2022",14,738
"09-22-2022",21,533
"09-23-2022",7,561
"09-24-2022",3,394
"09-25-2022",10,323
"09-26-2022",6,313
"09-27-2022",2,207
"09-28-2022",4,180
"09-29-2022",1,35
"09-30-2022",5,373
"10-01-2022",17,518
"10-02-2022",11,376
"10-03-2022",10,416
"10-04-2022",17,400
"10-05-2022",9,354
"10-06-2022",13,280
"10-07-2022",9,467
"10-08-2022",6,494
"10-09-2022",36,403
"10-10-2022",23,1066
"10-11-2022",8,771
"10-12-2022",18,513
"10-13-2022",4,201
"10-14-2022",7,269
"10-15-2022",18,301
"10-16-2022",11,245
"10-17-2022",155,517
"10-18-2022",91,368
"10-19-2022",36,541
"10-20-2022",16,401
"10-21-2022",14,311
"10-22-2022",20,334
"10-23-2022",76,271
"10-24-2022",5,260
"10-25-2022",11,366
"10-26-2022",37,299
"10-27-2022",21,392
"10-28-2022",8,128
"10-29-2022",3,131
"10-30-2022",8,138
"10-31-2022",19,189
"11-01-2022",90,163
"11-02-2022",55,186
"11-03-2022",27,200
"11-04-2022",7,164
"11-05-2022",7,137
"11-06-2022",18,63
"11-07-2022",7,175
"11-08-2022",3,53
"11-09-2022",0,57
"11-10-2022",0,180
"11-11-2022",3,267
"11-12-2022",6,303
"11-13-2022",54,171
"11-14-2022",9,283
"11-15-2022",6,546
"11-16-2022",3,1025
"11-17-2022",10,497
"11-18-2022",5,213
"11-19-2022",1,192
"11-20-2022",5,213
"11-21-2022",83,140
"11-22-2022",19,163
"11-23-2022",66,234
"11-24-2022",8,227
"11-25-2022",20,222
"11-26-2022",37,258
"11-27-2022",13,195
"11-28-2022",42,260
"11-29-2022",14,210
"11-30-2022",5,150
"12-01-2022",10,414
"12-02-2022",15,250
"12-03-2022",12,278
"12-04-2022",8,182
"12-05-2022",55,203
"12-06-2022",6,209
"12-07-2022",2,163
"12-08-2022",15,270
"12-09-2022",8,241
"12-10-2022",41,171
"12-11-2022",54,212
"12-12-2022",4,219
"12-13-2022",28,146
"12-14-2022",5,292
"12-15-2022",7,342
"12-16-2022",30,442
"12-17-2022",6,345
"12-18-2022",3,98
"12-19-2022",13,162
"12-20-2022",7,206
"12-21-2022",15,1337
"12-22-2022",41,1518
"12-23-2022",0,276
"12-24-2022",4,272
"12-25-2022",12,229
"12-26-2022",5,395
"12-27-2022",5,458
"12-28-2022",8,292
"12-29-2022",74,404
"12-30-2022",31,334
"12-31-2022",30,280
"01-01-2023",5,324
"01-02-2023",7,340
"01-03-2023",8,115
"01-04-2023",8,51
"01-05-2023",9,61
"01-06-2023",0,101
"01-07-2023",7,184
"01-08-2023",18,151
"01-09-2023",3,115
"01-10-2023",1,123
"01-11-2023",2,193
"01-12-2023",8,198
"01-13-2023",2,259
"01-14-2023",5,247
"01-15-2023",5,187
"01-16-2023",9,323
"01-17-2023",2,471
"01-18-2023",25,467
"01-19-2023",1,380
"01-20-2023",2,537
"01-21-2023",7,403
"01-22-2023",22,280
"01-23-2023",35,240
"01-24-2023",7,339
"01-25-2023",0,670
"01-26-2023",56,597
"01-27-2023",88,208
"01-28-2023",168,136
"01-29-2023",154,262
"01-30-2023",230,249
"01-31-2023",255,150
"02-01-2023",405,140
"02-02-2023",46,234
"02-03-2023",105,310
"02-04-2023",35,166
"02-05-2023",17,183
"02-06-2023",21,162
"02-07-2023",28,135
"02-08-2023",5,265
"02-09-2023",6,237
"02-10-2023",4,309
"02-11-2023",8,261
"02-12-2023",9,128
"02-13-2023",57,196
"02-14-2023",20,203
"02-15-2023",10,230
"02-16-2023",13,222
"02-17-2023",4,343
"02-18-2023",4,755
"02-19-2023",15,736
"02-20-2023",17,1861
"02-21-2023",12,2176
"02-22-2023",51,1370
"02-23-2023",45,703
"02-24-2023",12,1554
"02-25-2023",10,1468
"02-26-2023",29,949
"02-27-2023",88,588
"02-28-2023",70,389
"03-01-2023",38,291
"03-02-2023",9,248
"03-03-2023",18,322
"03-04-2023",74,458
"03-05-2023",26,280
"03-06-2023",114,314
"03-07-2023",24,349
"03-08-2023",42,261
"03-09-2023",50,545
"03-10-2023",46,338
"03-11-2023",63,312
"03-12-2023",119,168
"03-13-2023",27,291
"03-14-2023",5,460
"03-15-2023",13,692
"03-16-2023",65,356
"03-17-2023",61,567
"03-18-2023",24,548
"03-19-2023",46,329
"03-20-2023",68,582
"03-21-2023",10,514
"03-22-2023",45,305
"03-23-2023",30,251
"03-24-2023",73,221
"03-25-2023",32,225
"03-26-2023",107,227
"03-27-2023",374,201
"03-28-2023",260,148
"03-29-2023",244,117
"03-30-2023",59,245
"03-31-2023",8,73
"04-01-2023",22,175
"04-02-2023",33,239
"04-03-2023",20,155
"04-04-2023",8,98
"04-05-2023",113,122
"04-06-2023",344,121
"04-07-2023",423,132
"04-08-2023",263,175
"04-09-2023",353,256
"04-10-2023",122,266
"04-11-2023",75,207
"04-12-2023",80,350
"04-13-2023",26,313
"04-14-2023",29,276
"04-15-2023",44,191
"04-16-2023",29,254
"04-17-2023",35,152
"04-18-2023",22,215
"04-19-2023",10,124
"04-20-2023",13,212
"04-21-2023",12,242
"04-22-2023",13,171
"04-23-2023",77,119
"04-24-2023",73,145
"04-25-2023",31,217
"04-26-2023",59,279
"04-27-2023",80,122
"04-28-2023",33,301
"04-29-2023",12,223
"04-30-2023",98,138
"05-01-2023",73,178
"05-02-2023",35,199
"05-03-2023",37,501
"05-04-2023",31,501
"05-05-2023",21,286
"05-06-2023",6,111
"05-07-2023",18,108
"05-08-2023",19,154
"05-09-2023",103,214
"05-10-2023",102,98
"05-11-2023",59,333
"05-12-2023",85,223
"05-13-2023",176,269
"05-14-2023",177,185
"05-15-2023",72,290
"05-16-2023",33,295
"05-17-2023",9,164
"05-18-2023",38,259
"05-19-2023",20,408
"05-20-2023",8,575
"05-21-2023",9,543
"05-22-2023",4,351
"05-23-2023",5,192
"05-24-2023",5,145
"05-25-2023",6,209
"05-26-2023",8,213
"05-27-2023",10,233
"05-28-2023",8,176
"05-29-2023",21,419
"05-30-2023",10,411
"05-31-2023",30,295
"06-01-2023",27,251
"06-02-2023",24,269
"06-03-2023",9,272
"06-04-2023",59,245
"06-05-2023",37,454
"06-06-2023",6,534
"06-07-2023",11,334
"06-08-2023",14,388
"06-09-2023",2,159
"06-10-2023",4,168
"06-11-2023",5,211
"06-12-2023",11,147
"06-13-2023",29,96
"06-14-2023",3,160
"06-15-2023",5,240
"06-16-2023",3,229
"06-17-2023",5,290
"06-18-2023",10,177
"06-19-2023",34,220
"06-20-2023",73,226
"06-21-2023",35,99
"06-22-2023",11,151
"06-23-2023",11,245
"06-24-2023",12,1567
"06-25-2023",7,1663
"06-26-2023",65,1404
"06-27-2023",4,595
"06-28-2023",10,316
"06-29-2023",6,277
"06-30-2023",6,140
"07-01-2023",6,158
"07-02-2023",10,187
"07-03-2023",237,376
"07-04-2023",336,292
"07-05-2023",289,254
"07-06-2023",47,256
"07-07-2023",8,500
"07-08-2023",38,584
"07-09-2023",44,642
"07-10-2023",45,800
"07-11-2023",42,787
"07-12-2023",18,1019
"07-13-2023",3,709
"07-14-2023",8,174
"07-15-2023",68,217
"07-16-2023",69,251
"07-17-2023",221,505
"07-18-2023",218,211
"07-19-2023",220,128
"07-20-2023",43,189
"07-21-2023",25,361
"07-22-2023",20,144
"07-23-2023",153,269
"07-24-2023",383,271
"07-25-2023",305,237
"07-26-2023",57,251
"07-27-2023",144,147
"07-28-2023",57,149
"07-29-2023",59,284
"07-30-2023",78,189
"07-31-2023",78,329
"08-01-2023",24,272
"08-02-2023",1,90
"08-03-2023",12,95
"08-04-2023",11,212
"08-05-2023",5,272
"08-06-2023",26,225
"08-07-2023",78,302
"08-08-2023",0,349
"08-09-2023",10,199
"08-10-2023",8,129
"08-11-2023",6,172
"08-12-2023",7,173
"08-13-2023",8,189
"08-14-2023",35,98
"08-15-2023",0,64
"08-16-2023",2,91
"08-17-2023",6,143
"08-18-2023",12,248
"08-19-2023",7,108
"08-20-2023",27,155
"08-21-2023",13,143
"08-22-2023",37,173
"08-23-2023",15,288
"08-24-2023",64,401
"08-25-2023",4,134
"08-26-2023",17,216
"08-27-2023",12,178
"08-28-2023",9,191
"08-29-2023",41,104
"08-30-2023",1,62
"08-31-2023",10,116
"09-01-2023",21,186
"09-02-2023",9,148
"09-03-2023",97,201
"09-04-2023",44,236
"09-05-2023",5,267
"09-06-2023",9,273
"09-07-2023",5,340
"09-08-2023",1,198
"09-09-2023",22,300
"09-10-2023",16,340
"09-11-2023",8,199
"09-12-2023",25,315
"09-13-2023",23,242
"09-14-2023",1,169
"09-15-2023",2,132
"09-16-2023",5,102
"09-17-2023",25,239
"09-18-2023",39,337
"09-19-2023",34,712
"09-20-2023",101,496
"09-21-2023",101,792
"09-22-2023",99,447
"09-23-2023",114,407
"09-24-2023",26,231
"09-25-2023",16,186
"09-26-2023",21,207
"09-27-2023",9,165
"09-28-2023",18,197
"09-29-2023",19,136
"09-30-2023",3,624
"10-01-2023",32,796
"10-02-2023",0,381
"10-03-2023",2,145
"10-04-2023",4,433
"10-05-2023",4,472
"10-06-2023",13,283
"10-07-2023",4884,132
"10-08-2023",6494,100
"10-09-2023",6328,103
"10-10-2023",5571,194
"10-11-2023",5466,197
"10-12-2023",5393,134
"10-13-2023",5729,98
"10-14-2023",5959,104
"10-15-2023",5773,88
"10-16-2023",5216,119
"10-17-2023",4573,170
"10-18-2023",5401,203
"10-19-2023",4365,362
"10-20-2023",4203,762
"10-21-2023",4074,200
"10-22-2023",4138,304
"10-23-2023",4268,187
"10-24-2023",3451,144
"10-25-2023",2561,169
"10-26-2023",1153,61
"10-27-2023",2674,49
"10-28-2023",3768,83
"10-29-2023",3440,152
"10-30-2023",3507,143
"10-31-2023",3384,383
"11-01-2023",3284,301
"11-02-2023",3101,175
"11-03-2023",3408,204
"11-04-2023",2890,168
"11-05-2023",3140,115
"11-06-2023",2194,112
"11-07-2023",1756,94
"11-08-2023",1328,66
"11-09-2023",1438,168
"11-10-2023",1692,86
"11-11-2023",1714,113
"11-12-2023",1824,118
"11-13-2023",1973,101
"11-14-2023",1737,86
"11-15-2023",1711,91
"11-16-2023",1762,156
"11-17-2023",1339,49
"11-18-2023",1352,110
"11-19-2023",1415,96
"11-20-2023",1618,171
"11-21-2023",1887,123
"11-22-2023",2657,87
"11-23-2023",2313,76
"11-24-2023",3193,39
"11-25-2023",3029,63
"11-26-2023",2991,139
"11-27-2023",2602,104
"11-28-2023",2219,125
"11-29-2023",2240,141
"11-30-2023",1931,108
"12-01-2023",1905,84
"12-02-2023",1497,119
"12-03-2023",1611,113
"12-04-2023",1741,227
"12-05-2023",1404,298
"12-06-2023",894,401
"12-07-2023",797,333
"12-08-2023",710,269
"12-09-2023",777,212
"12-10-2023",791,335
"12-11-2023",782,313
"12-12-2023",656,1043
"12-13-2023",856,626
"12-14-2023",777,371
"12-15-2023",1480,330
"12-16-2023",804,283
"12-17-2023",877,291
"12-18-2023",1264,140
"12-19-2023",767,204
"12-20-2023",582,134
"12-21-2023",659,121
"12-22-2023",767,106
"12-23-2023",747,142
"12-24-2023",819,84
"12-25-2023",550,71
"12-26-2023",855,153
"12-27-2023",904,168
"12-28-2023",787,137
"12-29-2023",433,253
"12-30-2023",644,433
"12-31-2023",372,214
"01-01-2024",457,102
"01-02-2024",616,184
"01-03-2024",788,146
"01-04-2024",577,68
"01-05-2024",381,144
"01-06-2024",270,74
"01-07-2024",351,53
